Theta_e
329 335 356 355 352 350 348 346 344 343 343 340 338 337 336 335 334 334 333 332 332 332 333 335 335 337 338 339 340 341 343 344 346 352 353 355 356 355 357 358 359 355 359
327 337 356 355 353 350 349 349 348 347 346 343 340 338 338 337 337 336 336 334 334 334 335 335 336 336 337 339 339 340 341 343 345 349 353 354 355 354 356 356 359 355 358
328 338 351 355 354 352 351 350 349 348 347 344 343 342 340 339 338 338 338 339 338 337 336 336 336 336 336 338 339 341 341 343 344 346 351 348 348 353 354 356 356 358 358
334 341 347 355 354 353 352 352 350 349 347 345 343 341 341 341 342 340 340 340 341 340 340 339 338 337 337 337 338 342 342 341 344 344 345 347 349 351 352 354 354 357 357
336 342 345 355 354 354 353 352 351 351 349 346 344 344 343 344 343 343 341 341 342 342 342 342 340 339 339 338 342 343 344 341 343 341 343 343 344 350 351 352 353 356 355
334 340 347 355 355 354 354 354 352 351 349 347 345 346 345 344 343 342 343 342 341 341 341 342 342 341 340 340 343 343 344 343 341 339 341 343 344 349 351 351 353 353 354
331 337 344 355 355 355 355 352 351 350 350 349 347 346 345 344 343 342 341 340 340 339 339 340 341 342 341 341 341 343 344 342 337 338 338 340 342 348 352 351 353 353 354
334 337 345 355 355 354 354 353 352 352 351 349 345 343 342 342 341 341 341 340 339 338 339 339 342 342 342 342 342 343 343 341 338 336 338 338 343 349 351 354 355 353 352
337 341 346 349 352 355 354 352 352 350 346 344 341 338 335 334 334 334 335 336 337 337 337 338 341 342 341 341 339 340 341 342 334 335 337 337 345 349 352 354 355 354 352
337 341 343 342 344 344 345 351 350 346 343 340 335 334 334 334 333 333 333 334 335 335 335 336 337 340 341 339 340 338 339 340 334 334 335 337 346 349 352 353 353 353 351
330 331 334 335 334 334 337 341 345 343 338 336 335 335 334 326 325 327 329 332 334 335 336 335 336 339 339 337 337 337 337 331 332 333 334 342 347 349 351 352 352 352 354
320 323 328 328 329 330 335 332 330 329 327 328 328 325 323 322 321 325 329 333 334 335 335 336 336 337 336 328 329 335 326 329 330 332 333 343 346 349 350 352 351 352 353
318 317 321 322 324 326 328 327 326 324 323 323 324 322 321 322 321 322 321 322 323 329 327 329 330 329 328 325 325 325 326 328 328 331 336 343 346 348 349 350 350 351 349
311 314 318 319 320 321 322 323 323 321 321 320 321 322 320 319 319 319 319 321 322 322 323 323 324 325 325 325 325 324 325 326 327 327 332 343 346 347 348 349 349 348 349
310 313 316 318 318 320 321 321 320 321 322 321 320 321 321 319 318 319 322 324 325 324 323 321 322 323 324 325 324 323 322 324 327 327 329 340 346 347 348 348 348 348 346
312 314 316 318 320 322 321 320 321 321 321 321 321 321 323 321 319 320 323 323 319 319 319 320 321 321 321 321 322 323 322 323 326 327 330 333 345 346 346 347 348 348 348
314 316 318 319 321 322 320 321 320 321 322 321 322 323 323 321 320 321 320 318 318 318 318 319 319 320 319 320 320 321 321 323 325 327 330 332 335 344 345 345 347 347 347
315 317 317 323 321 321 319 319 320 321 321 322 322 322 324 323 322 320 318 317 319 318 317 316 317 317 317 318 318 319 320 322 324 326 329 332 332 334 340 343 346 345 345
315 316 317 319 319 319 318 319 321 321 321 322 322 322 323 325 325 320 318 318 318 316 316 316 315 317 316 316 318 318 320 320 324 329 329 330 331 333 334 341 344 343 344
314 316 317 317 318 318 319 318 319 320 321 322 322 322 323 324 324 319 317 318 318 315 314 314 314 317 316 316 320 320 319 320 324 325 328 330 330 333 333 335 339 341 343
314 316 317 317 318 318 317 316 317 317 319 320 322 324 324 325 322 319 317 318 317 315 314 315 315 314 315 316 315 315 318 320 324 327 328 330 331 333 332 334 337 337 337
315 316 317 317 318 318 316 319 318 318 319 320 321 326 327 324 322 320 319 318 317 315 314 315 315 315 314 316 313 312 309 314 324 327 327 329 330 333 334 334 336 335 335
315 316 317 317 317 318 318 319 318 318 318 319 319 320 321 322 323 322 320 318 317 315 314 314 315 316 314 316 316 314 311 308 318 324 327 327 331 331 333 334 334 335 335
314 316 318 318 317 317 321 318 316 315 314 316 317 318 319 322 323 322 321 318 317 316 314 314 317 316 316 314 316 320 318 318 315 316 325 326 329 329 330 332 332 333 334
314 315 317 318 316 319 319 318 318 315 316 317 317 316 317 320 324 322 320 318 317 316 315 316 316 316 316 316 317 319 321 320 321 321 317 321 327 329 330 331 332 333 333
313 315 316 315 317 318 319 319 318 316 316 314 315 315 315 316 322 319 320 318 317 316 318 318 317 317 317 318 319 321 320 318 317 320 319 321 321 326 329 330 330 331 333
Wind_Speed
13 13 23 20 19 18 17 17 17 16 14 14 13 12 11 9 8 7 6 6 6 6 7 7 7 7 6 6 7 8 7 7 8 9 10 10 8 9 11 12 15 11 18
17 13 20 19 18 18 17 17 16 15 14 14 13 13 12 11 10 9 8 7 7 8 8 8 8 9 8 8 8 8 9 8 8 9 11 10 10 9 12 12 16 14 17
13 13 17 20 20 18 17 16 16 15 14 14 13 12 11 12 11 10 10 9 8 9 9 10 10 10 10 9 9 9 8 8 9 8 10 3 3 9 13 14 13 16 16
13 13 16 22 20 18 17 16 15 14 14 14 14 13 13 13 12 11 11 11 11 10 10 11 11 11 11 10 11 9 7 8 10 9 4 3 4 6 9 14 15 18 18
13 15 15 22 20 19 18 16 15 15 14 15 14 16 16 13 14 14 14 14 14 14 14 13 12 12 12 12 10 9 9 8 9 7 4 4 4 6 10 12 15 16 17
13 13 15 21 20 19 18 17 16 15 15 14 15 16 15 14 13 14 15 14 15 15 16 15 15 13 13 13 11 10 11 8 8 3 3 5 4 9 12 12 17 16 15
9 9 12 20 20 19 19 17 15 14 13 14 15 14 14 15 14 15 15 15 16 17 17 17 17 16 14 13 12 11 9 6 4 3 3 4 5 10 13 14 17 19 17
13 9 10 19 19 19 18 17 16 14 13 13 11 9 9 10 11 12 14 15 16 17 17 19 17 16 13 12 11 11 9 8 5 3 4 4 8 11 15 14 16 19 19
8 11 8 11 15 18 16 15 14 13 12 12 10 9 8 10 11 13 15 16 17 17 18 19 17 15 14 14 13 11 9 8 5 3 4 4 10 12 15 15 18 19 20
7 9 10 8 7 7 7 12 14 13 12 11 11 9 9 9 10 11 12 13 16 16 18 19 19 17 14 16 13 11 9 10 5 4 3 4 12 14 15 17 19 21 21
5 6 6 7 7 6 6 8 11 13 12 12 10 10 8 4 5 7 8 10 12 15 17 18 18 17 16 17 15 13 11 3 4 4 3 9 14 15 17 18 19 22 22
8 7 6 6 7 7 5 5 5 5 4 4 5 5 3 4 5 5 8 10 11 14 13 17 17 16 16 4 5 12 3 4 4 4 3 12 14 14 17 18 20 22 23
12 7 8 7 7 7 6 4 3 2 2 3 6 5 4 3 3 3 2 3 3 7 3 4 5 3 5 4 4 4 4 4 3 3 5 13 13 15 17 19 20 21 23
9 8 9 8 7 7 4 4 4 4 4 4 5 6 4 3 4 3 3 4 3 3 3 2 2 3 4 5 6 5 5 4 3 3 6 13 13 15 18 18 22 22 22
9 9 11 9 8 6 6 4 4 5 4 5 5 5 4 4 4 3 4 3 3 2 2 3 3 3 4 5 5 5 5 5 5 3 3 13 13 14 17 20 22 24 24
9 13 10 9 8 8 6 7 5 4 5 4 4 5 6 4 4 4 4 3 3 3 2 3 4 4 4 3 4 5 5 5 5 5 4 5 12 12 14 18 20 22 23
11 12 13 10 8 8 7 6 4 4 4 4 4 5 6 5 5 5 4 4 4 3 4 3 2 2 3 3 4 4 4 6 5 5 5 4 5 11 14 16 16 18 20
11 13 9 8 8 7 6 5 4 4 4 4 4 4 5 6 5 5 4 4 3 3 3 3 3 3 3 4 3 4 4 4 6 5 4 3 3 2 9 16 13 17 19
11 10 9 8 8 8 6 4 4 4 4 4 4 4 5 5 5 5 4 4 4 3 3 3 2 3 3 3 4 3 4 4 4 3 4 4 4 3 2 7 13 18 20
9 9 8 7 7 7 3 2 2 2 2 2 3 3 5 4 5 5 4 4 4 3 3 2 3 2 2 3 2 3 3 2 2 3 3 2 2 2 4 6 6 12 24
9 9 8 9 7 4 2 2 0 3 2 2 2 5 5 3 5 5 3 4 4 4 4 4 3 4 2 2 3 2 3 3 4 3 3 2 3 2 4 7 6 9 12
11 9 8 8 7 4 2 2 2 2 2 1 2 3 3 5 5 4 5 4 5 3 4 5 4 3 2 3 3 3 2 3 3 2 3 3 5 3 6 8 10 11 8
12 10 9 8 8 4 4 2 1 1 1 2 1 2 1 3 4 5 5 4 4 4 4 4 5 5 4 1 3 4 3 3 2 1 2 3 5 5 5 9 9 10 8
9 8 8 8 7 5 6 2 3 2 1 1 1 1 1 1 3 4 4 5 5 3 4 5 4 3 4 4 0 1 2 4 4 3 2 3 4 6 7 8 11 10 10
8 8 7 7 6 6 5 4 3 2 1 0 1 2 1 2 2 3 4 4 3 3 4 5 5 4 3 4 3 2 2 2 2 4 3 4 4 6 6 8 8 9 11
6 7 7 8 5 6 5 4 5 4 4 2 1 1 1 1 2 2 3 3 2 3 5 4 4 4 3 2 3 4 3 3 3 4 3 5 5 5 7 7 6 8 8
Wind_Direction
210 182 184 179 179 177 172 176 178 183 182 181 182 183 182 188 196 205 215 237 249 247 253 258 253 258 259 272 277 280 283 293 306 316 309 264 236 198 181 169 157 152 148
173 172 178 179 182 182 179 182 184 187 187 191 197 199 196 202 205 210 218 226 243 259 260 256 255 245 252 256 270 274 277 287 299 310 311 274 239 208 202 189 174 160 152
156 157 172 181 188 184 185 188 188 189 193 197 202 210 212 212 216 220 227 229 234 247 252 256 252 254 248 248 253 256 272 284 292 296 308 287 226 214 213 205 183 160 158
146 157 172 184 188 186 190 192 192 196 198 203 207 215 223 224 222 231 237 239 242 248 253 253 252 248 249 247 255 267 270 276 288 285 310 278 224 212 216 207 191 169 164
154 164 176 184 184 188 191 194 195 199 201 210 215 224 226 221 225 228 234 239 241 245 248 248 250 254 249 249 245 246 260 255 275 277 306 265 227 214 205 206 197 185 169
165 170 179 182 184 188 190 192 195 198 208 213 225 233 231 229 228 231 237 241 246 251 257 257 247 245 250 245 245 254 254 247 264 291 284 273 235 223 209 204 202 192 172
166 170 175 183 185 187 188 189 193 203 211 220 229 232 239 242 242 241 242 245 248 250 252 252 254 241 239 249 242 244 247 244 246 246 258 265 251 222 221 205 204 194 179
163 166 176 181 185 187 186 187 188 201 212 222 223 221 238 253 260 258 255 253 254 255 258 255 251 244 238 239 233 238 243 231 246 236 250 250 254 231 219 204 196 187 181
166 163 170 180 186 188 187 187 182 188 192 193 199 214 234 257 265 266 264 263 262 260 258 258 258 249 240 239 231 236 242 246 227 237 251 253 253 246 222 205 192 184 185
162 173 175 171 171 166 176 183 185 185 187 196 204 216 226 244 254 260 262 265 264 264 263 256 254 254 241 237 228 232 242 254 244 237 247 260 257 246 230 210 192 182 180
191 187 169 165 155 154 158 183 187 185 190 201 215 221 228 215 240 257 262 259 259 256 254 253 249 244 239 230 223 224 235 238 246 239 232 255 256 249 230 209 194 183 179
199 198 179 166 158 157 154 168 166 193 190 204 214 224 229 218 219 235 251 266 264 265 278 247 242 235 229 184 214 225 207 231 232 243 233 248 253 246 232 203 192 183 173
199 169 173 171 170 162 151 159 166 190 210 225 214 214 227 223 226 247 260 276 280 278 275 298 255 228 178 170 190 198 217 230 233 243 245 250 249 243 230 201 193 186 177
172 168 155 164 157 157 151 167 178 194 212 213 215 214 207 216 226 241 244 252 257 258 263 267 253 190 192 182 186 201 219 229 237 244 250 251 240 239 230 203 195 184 176
170 160 163 155 150 160 163 168 192 206 200 207 211 227 206 214 224 225 235 238 262 264 233 244 238 202 189 190 200 195 228 235 246 241 242 253 238 230 233 208 200 192 183
159 165 157 160 162 161 173 186 201 198 210 214 218 217 213 208 220 214 236 235 237 243 266 233 220 202 199 178 211 218 234 239 246 237 230 252 250 226 225 213 210 202 193
170 154 164 158 169 171 189 195 202 215 213 222 226 224 215 209 215 204 218 239 234 224 239 234 233 187 185 197 223 235 241 248 248 239 225 225 262 234 218 194 192 191 183
149 160 158 159 173 182 191 204 219 229 231 232 232 229 218 209 198 196 208 236 238 221 216 206 192 200 198 191 223 234 240 247 252 225 215 207 213 249 229 210 182 190 192
157 153 157 162 174 188 204 226 230 242 234 237 233 220 213 202 197 188 204 227 224 210 213 194 184 164 183 206 222 234 242 239 242 191 193 200 222 220 170 206 187 182 159
146 152 151 159 170 185 181 232 263 254 264 248 246 231 212 206 200 191 210 225 201 196 215 179 165 193 169 183 214 224 237 245 220 179 166 138 189 191 194 146 159 132 148
148 146 162 149 181 144 177 211 328 255 290 284 235 239 219 200 213 200 215 207 180 198 199 188 153 178 205 112 119 41 34 13 211 131 117 158 163 107 158 141 130 144 150
151 156 156 162 169 172 169 204 171 207 250 252 295 253 227 212 215 193 196 193 184 174 179 176 168 135 171 175 141 104 90 8 7 64 219 157 144 109 130 127 136 137 156
156 161 161 169 169 179 191 122 81 359 20 23 322 292 274 225 213 182 196 190 178 173 182 180 177 161 152 138 216 137 122 189 84 111 173 164 106 124 112 125 137 141 146
166 152 153 161 163 184 178 146 161 180 182 235 251 269 254 231 154 175 194 183 173 171 186 187 187 175 136 149 148 204 181 146 141 142 102 114 149 115 113 129 130 134 124
142 156 159 155 168 185 167 151 160 165 180 124 297 78 321 346 171 176 176 149 159 167 196 187 184 188 166 149 152 154 141 123 101 122 121 140 114 127 110 120 132 133 130
134 140 144 158 185 185 165 169 166 157 147 160 197 112 331 322 66 104 127 139 152 205 174 170 169 175 187 180 154 166 164 153 156 110 112 123 126 125 119 111 119 129 126